x

Cape Elizabeth- 45nm Nw Of Aberdeen, Wa (46041) Wave Buoy

9:50 - Thu 24th Jul 2014 All times are PDT. -7 hours from GMT.

  • Sig Wave height 4.9ft
  • Swell Direction
  • Peak Period 8s
  • Average Period 6s
  • Wind
    9mph, 11mph gusts
  • Sea Temp 57°f
  • Air Temp 59°f
  • Sea Pressure 1022.4mb
  • Cape Elizabeth- 45nm Nw Of Aberdeen, Wa
  • Cape Elizabeth- 45nm Nw Of Aberdeen, Wa

More Historic Weather Station data

Upgrade to MSW Pro to gain access to the past 30 days of data for over 8000 Wavebouys and Weather Stations around the globe.

Join Pro

Comparision Forecast

View Surf forecast
   
jeu. 07/24 9:50 5ft 8s 6s 9 11 mph 1022.4mb 57f 59f
8:50 5ft 8s 6s 9 11 mph 1021.6mb 57f 58f
7:50 5ft 8s 6s 9 11 mph 1021mb 57f 58f
6:50 6ft 8s 7s 11
mph
1020.1mb 57f 57f
5:50 5.5ft 6s 6s 4
mph
1019mb 57f 57f
4:50 6ft 8s 6s 2 4 mph 1018mb 57f 57f
3:50 6ft 8s 6s 4 7 mph 1017.2mb 58f 57f
2:50 6.5ft 8s 7s 9
mph
1015.9mb 58f 57f
1:50 7ft 8s 6s 2 4 mph 1015.6mb 57f 58f
12:50 6.5ft 7s 6s 7 9 mph 1014.6mb 57f 58f
mer. 07/23 11:50 7ft 7s 6s 7 9 mph 1014.3mb 57f 58f
10:50 6.5ft 7s 6s 13 18 mph 1013.8mb 57f 58f
9:50 7ft 7s 5s 11 13 mph 1013.7mb 57f 58f
8:50 6.5ft 6s 5s 25 31 mph 1013.5mb 57f 57f
7:50 5.5ft 7s 5s 22 27 mph 1014.4mb 58f 58f
6:50 5ft 9s 6s 11 13 mph 1015.3mb 58f 59f
5:50 5ft 7s 6s 13 16 mph 1015.8mb 58f 59f
4:50 5.5ft 6s 6s 13 16 mph 1016mb 58f 60f
3:50 5.5ft 7s 6s 13 16 mph 1016.2mb 58f 60f
2:50 5.5ft 7s 6s 9 11 mph 1016.6mb 57f 60f
1:50 6ft 6s 6s 9 11 mph 1016mb 57f 60f
12:50 5ft 6s 6s 9 13 mph 1015.7mb 57f 60f
11:50 5ft 6s 5s 11 13 mph 1015.3mb 58f 60f
10:50 5ft 9s 5s 11 13 mph 1014.9mb 58f 59f
9:50 5ft 9s 6s 13 16 mph 1014.8mb 58f 59f
8:50 5ft 9s 6s 9 11 mph 1014.7mb 58f 59f
7:50 5ft 10s 5s 13 16 mph 1014.1mb 58f 59f
6:50 4.5ft 9s 5s 11 13 mph 1013.6mb 59f 58f
5:50 4ft 9s 6s 18 20 mph 1013.3mb 59f 60f
4:50 3.5ft 9s 6s 16 18 mph 1013.4mb 60f 60f
3:50 4ft 9s 7s 13 18 mph 1014mb 60f 60f
2:50 3.5ft 9s 7s 13 18 mph 1014.2mb 61f 61f
1:50 4ft 9s 7s 7 9 mph 1014.5mb 61f 60f
12:50 3.5ft 8s 7s 7
mph
1015mb 62f 61f
mar. 07/22 11:50 3.5ft 9s 7s 4
mph
1015.2mb 61f 61f
10:50 4ft 11s 7s 2
mph
1015.4mb 61f 61f
9:50 3.5ft 9s 7s 2
mph
1015.7mb 61f 61f
8:50 4ft 11s 7s 4 7 mph 1015.8mb 61f 60f
7:50 4ft 7s 7s 7 9 mph 1015.9mb 61f 61f
6:50 3.5ft 8s 7s 2
mph
1016.1mb 61f 61f
5:50 3.5ft 9s 7s 2 4 mph 1016.7mb 61f 61f
4:50 3.5ft 9s 7s 4 7 mph 1017.2mb 61f 61f
3:50 3.5ft 9s 7s 7
mph
1017.7mb 61f 61f
2:50 3ft 9s 7s 7
mph
1017.8mb 61f 60f
1:50 3ft 11s 7s 7 9 mph 1017.9mb 61f 60f
12:50 3ft 10s 7s 7 9 mph 1017.8mb 61f 60f
11:50 3.5ft 11s 7s 9
mph
1017.7mb 60f 60f
10:50 3ft 11s 7s 9 11 mph 1017.4mb 60f 59f
9:50 3.5ft 11s 7s 9 11 mph 1017.2mb 60f 59f
8:50 3.5ft 11s 7s 9 11 mph 1017.2mb 60f 58f
7:50 3.5ft 11s 7s 9
mph
1016.8mb 60f 59f
6:50 4ft 8s 7s 9
mph
1016.3mb 60f 58f
5:50 4ft 10s 7s 9 11 mph 1016.2mb 60f 57f
4:50 3.5ft 9s 7s 7 9 mph 1016.6mb 60f 58f
3:50 4.5ft 8s 7s 2 4 mph 1016.7mb 60f 58f
2:50 4.5ft 11s 8s 2 4 mph 1016.8mb 61f 58f
1:50 4.5ft 10s 8s 2 4 mph 1016.9mb 61f 58f
12:50 4.5ft 10s 8s  -  2 mph 1016.6mb 61f 58f
lun. 07/21 11:50 4ft 10s 8s  -  mph 1016.3mb 60f 58f
10:50 4ft 11s 8s 2
mph
1016.2mb 60f 59f
9:50 4ft 11s 7s 4
mph
1016.2mb 60f 59f
8:50 4ft 10s 7s 4 7 mph 1016mb 61f 60f
7:50 4ft 8s 7s 7 9 mph 1016.2mb 62f 60f
6:50 4.5ft 10s 7s 7 9 mph 1016.3mb 63f 60f
5:50 5ft 10s 7s 4 7 mph 1016.5mb 64f 60f
4:50 5ft 10s 7s 4 7 mph 1016.9mb 64f 60f
3:50 4.5ft 10s 7s 4 7 mph 1017.3mb 64f 60f
2:50 5ft 10s 7s 4
mph
1017.6mb 63f 60f
1:50 5ft 10s 7s 4
mph
1017.6mb 62f 59f
12:50 5ft 10s 7s 4 7 mph 1017.8mb 60f 58f
11:50 5ft 10s 7s 4 7 mph 1017.6mb 59f 58f
10:50 5ft 10s 7s 7
mph
1017.5mb 58f 58f
9:50 5ft 10s 7s 7
mph
1017.3mb 58f 57f
8:50 5ft 10s 7s 7
mph
1017.3mb 57f 57f
7:50 5.5ft 10s 8s 4 7 mph 1017.2mb 57f 57f
6:50 5ft 10s 7s 7 9 mph 1016.8mb 57f 57f
5:50 5.5ft 11s 8s 7 9 mph 1016.7mb 57f 57f
4:50 5ft 10s 8s 9 11 mph 1016.5mb 57f 58f
3:50 5ft 10s 8s 7
mph
1016.2mb 57f 58f
2:50 5.5ft 11s 8s 4 7 mph 1016.2mb 58f 57f
1:50 6ft 11s 8s 4
mph
1016.2mb 58f 57f
12:50 5ft 11s 8s 4
mph
1016.1mb 58f 58f
dim. 07/20 11:50 5.5ft 11s 8s 4 7 mph 1016mb 58f 58f
10:50 6ft 11s 8s 9
mph
1015.9mb 58f 58f
9:50 6ft 10s 7s 9 11 mph 1015.8mb 58f 58f
8:50 7ft 11s 8s 7 9 mph 1015.5mb 58f 58f
7:50 7ft 11s 8s 9
mph
1015.7mb 58f 58f
6:50 7ft 10s 8s 9 13 mph 1015.7mb 58f 58f